This demonstration page uses our WeatherBlox Daily Observations layout. Learn more.

41.55636, -103.73856

Hourly Observations for March 26, 2019

Temp ( °F °C ) Dew Point ( °F °C ) Humidity (%) Winds ( mph kmh ) Pressure ( in mb ) Visibility ( mi km ) Precip ( " mm )
12:58 am 00:58 Clear 44 6.7 33 0.5 65 65 N 10 17 30.29 1026 10 16.0934 0 0
1:58 am 01:58 Clear 40 4.4 33 0.7 77 77 Calm 30.34 1027 10 16.0934 0 0
2:58 am 02:58 Clear 36 2.1 28 -2 75 75 W 8 13 30.34 1027 10 16.0934 0 0
3:58 am 03:58 Clear 38 3.5 26 -3.6 60 60 WNW 6 9 30.31 1026 10 16.0934 0 0
4:58 am 04:58 Mostly Clear 39 3.9 23 -5.2 52 52 WSW 5 7 30.3 1026 10 16.0934 0 0
5:58 am 05:58 Mostly Clear 38 3.3 23 -5 55 55 WSW 6 9 30.29 1026 10 16.0934 0 0
6:58 am 06:58 Clear 32 -0.1 26 -3.5 78 78 SW 15 24 30.29 1026 10 16.0934 0 0
7:58 am 07:58 Clear 33 0.8 24 -4.2 70 70 SW 12 19 30.29 1026 10 16.0934 0 0
8:58 am 08:58 Clear 33 0.6 25 -4.1 71 71 SW 13 20 30.24 1024 10 16.0934 0 0
9:58 am 09:58 Mostly Clear 33 0.7 25 -3.7 73 73 SSW 14 22 30.22 1024 10 16.0934 0 0
10:58 am 10:58 Mostly Cloudy 35 1.5 26 -3.2 71 71 SW 14 22 30.19 1022 10 16.0934 0 0
11:58 am 11:58 Mostly Cloudy 36 2 26 -3.1 69 69 SSW 13 20 30.2 1023 10 16.0934 0 0
12:58 pm 12:58 Partly Cloudy 33 0.7 26 -3.2 75 75 SSW 12 19 30.21 1023 10 16.0934 0 0
1:58 pm 13:58 Sunny 36 2.4 27 -2.6 70 70 SSW 9 15 30.23 1024 10 16.0934 0 0
2:58 pm 14:58 Sunny 40 4.4 29 -1.6 65 65 SW 14 22 30.22 1023 10 16.0934 0 0
3:58 pm 15:58 Sunny 46 7.7 30 -1.2 54 54 SW 15 24 30.16 1021 10 16.0934 0 0
4:58 pm 16:58 Sunny 52 11.1 29 -1.7 41 41 SSW 15 24 30.14 1021 10 16.0934 0 0
5:58 pm 17:58 Sunny 57 13.8 24 -4.7 28 28 SW 14 22 30.09 1019 10 16.0934 0 0
6:58 pm 18:58 Sunny 57 14 23 -4.9 27 27 S 15 24 30.1 1019 10 16.0934 0 0
7:58 pm 19:58 Sunny 59 15 23 -4.9 25 25 SSW 15 24 30.07 1018 10 16.0934 0 0
8:58 pm 20:58 Sunny 60 15.6 24 -4.7 25 25 S 13 20 30.04 1017 10 16.0934 0 0
9:58 pm 21:58 Sunny 61 15.9 22 -5.4 23 23 SW 13 20 30.02 1017 10 16.0934 0 0
10:58 pm 22:58 Sunny 60 15.4 19 -7 21 21 SSW 16 26 30 1016 10 16.0934 0 0
11:58 pm 23:58 Sunny 57 14 27 -3 31 31 S 10 17 29.98 1015 10 16.0934 0 0

Powered by AerisWeather